星链-3068 (STARLINK-3068 )

导读 | 豆包AI

STARLINK-3068是美国SpaceX公司星链(Starlink)卫星互联网星座的一员,于2021年9月14日发射入轨。星链计划旨在通过部署数千颗低轨卫星,为全球偏远、基础设施匮乏地区提供高速低延迟宽带互联网服务。该卫星属于星链大规模组网的组成部分,单颗星链卫星设计寿命5年以上,截至2024年,已有超万颗星链卫星成功发射进入轨道,持续推进全球卫星互联网覆盖的建设目标。

Basic Information
目录编号:
49154
目录名称:
STARLINK-3068
国际标识:
2021-082AA
轨道中心:
EARTH
卫星名称:
星链-3068
卫星全名:
星链-3068 (STARLINK-3068 )
卫星状态:
在轨 (已飞行1642 天)
发射日期:
2021-09-14 UTC
国别 :
美国 (US)
星等 :
--
Orbit Information
数据来源 国际轨道数据 AOE轨道数据
星历时间 2026-03-14T14:27:01+0800
13小时前
查看轨道信息
2026-03-14T03:00:00+0800
1天前
查看轨道信息
半长轴 6952.689km 6952.706km
偏心率 0.0002923 0.000409
轨道倾角 69.998° 69.990°
近地点辐角 271.037° 269.471°
升交点赤经 263.697° 264.897°
平近点角 89.046° 39.235°
近地点 572.519km 571.725km
远地点 576.585km 577.413km
周期 96.159分钟 96.159分钟
每日圈数 14.975233 14.975179
Detailed Information
固有亮度:
5
最大亮度:
2.5
卫星平台:
Starlink v1.5
覆盖范围:
全球
运营商:
太空探索技术公司
运营商所在国:
美国
制造商(研发单位):
太空探索技术公司
制造商所在国:
美国
使用方式:
暂无
Satellite Introduction
星链(Starlink)计划是由太空探索技术公司(SpaceX)提出的一个巨型低轨卫星互联网星座项目,计划在2019年至2024年间在太空搭建由约1.2万颗卫星组成的“星链”网络,其中1584颗将部署在地球上空550千米处的近地轨道,并从2020年开始工作。该卫星仍在工作。
2D Orbit Map
3D Orbit Map
Orbit Altitude Analysis Chart
Orbit Inclination Analysis Chart
Orbit Comprehensive Analysis Chart
View Comprehensive Chart